Location: Unspecified
(0.0000°N, 0.0000°E)
Time: 19:11:31
(UTC+00:00)

ARIANE 2 DEB - Pass Details

Date: 11 March 2026
Orbit: 560 x 35706 km, 7.7° (Epoch: 21 April)

Event Time Altitude Azimuth Distance (km) Brightness Sun altitude
Rises 02:17:16 0° 263° (W) 12,337 ? -58.0°
Reaches altitude 10° 02:24:48 10° 263° (W) 13,266 ? -56.1°
Enters shadow 02:25:33 11° 263° (W) 13,370 ? -56.0°
Exits shadow 03:32:59 41° 267° (W) 23,825 ? -39.2°
Maximum altitude 12:07:30 75° 3° (N) 1,713 ? 86.4°
Drops below altitude 10° 12:12:43 10° 89° (E) 2,522 ? 86.3°
Sets 12:14:11 0° 91° (E) 3,149 ? 86.3°
